Regional Weather Roundup
Issued by NWS Memphis, TN

Current Version | Previous Version | Text Only | Print | Product List | Glossary On
Versions: 1 2 3 4 5 6 7 8 9 10 11 12 13 14 15 16 17 18 19 20 21 22 23 24 25 26 27 28 29 30 31 32 33 34 35 36 37 38 39 40 41 42 43 44 45 46 47 48 49 50
000 ASUS44 KMEG 050510 RWRMEG MEMPHIS CWA HOURLY WEATHER ROUNDUP NATIONAL WEATHER SERVICE MEMPHIS TN 1100 PM CST THU MAR 04 2021 ...WEST TENNESSEE... CITY SKY/WX TMP DP RH WIND PRES REMARKS MEMPHIS INTL CLEAR 52 40 63 E3 30.09S NWS MEMPHIS N/A 47 N/A N/A MISG N/A JACKSON CLEAR 53 33 46 E8 30.14R SOMERVILLE CLEAR 54 36 50 CALM 30.08S LEXINGTON CLEAR 54 32 43 NE8 30.12F SELMER CLEAR 54 32 43 NE6 30.11R DYERSBURG CLEAR 52 35 52 NE12 30.15S UNION CITY CLEAR 50 32 50 NE10 30.15S PARIS CLEAR 50 32 50 NE10G18 30.15S HUNTINGDON PTCLDY 52 32 46 NE8 30.14S ...EASTERN ARKANSAS... CITY SKY/WX TMP DP RH WIND PRES REMARKS JONESBORO CLEAR 54 39 57 NE15 30.12R WEST MEMPHIS CLEAR 53 46 77 CALM 30.08S BATESVILLE PTCLDY 49 36 61 E3 30.11R NEWPORT CLEAR 49 46 90 CALM 30.11S WALNUT RIDGE CLEAR 50 42 74 NE14 30.13R BLYTHEVILLE CLEAR 51 38 60 NE8 30.12S SEARCY PTCLDY 47 40 76 N3 30.09F STUTTGART PTCLDY 50 45 83 CALM 30.09S PINE BLUFF PTCLDY 51 44 77 CALM 30.07F MONTICELLO PTCLDY 47 42 83 CALM 30.06F ...NORTH MISSISSIPPI... CITY SKY/WX TMP DP RH WIND PRES REMARKS TUPELO CLEAR 49 41 74 CALM 30.08F OXFORD CLEAR 43 37 81 CALM 30.10S BATESVILLE PTCLDY 43 41 93 CALM 30.09S OLIVE BRANCH CLEAR 55 36 47 NE5 30.09S TUNICA CLEAR 48 43 81 CALM 30.10S CLARKSDALE N/A 50 50 100 N5 30.09S CORINTH CLEAR 46 39 76 CALM 30.10S GREENWOOD CLEAR 48 43 82 CALM 30.08S COLUMBUS CLEAR 44 39 82 CALM 30.06F STARKVILLE CLEAR 41 39 93 CALM 30.08F GOLDEN TRIANGL CLEAR 49 40 71 CALM 30.08F ...SOUTHEAST MISSOURI... CITY SKY/WX TMP DP RH WIND PRES REMARKS KENNETT CLEAR 52 37 58 NE12 30.13S MALDEN N/A 48 37 66 NE8 30.17S HAZE WEST PLAINS PTCLDY 53 38 56 E9 30.14R POPLAR BLUFF CLEAR 49 36 61 NE7 30.16S CAPE GIRARDEAU CLEAR 48 33 56 NE15 30.19R ...NORTHWEST ALABAMA... CITY SKY/WX TMP DP RH WIND PRES REMARKS MUSCLE SHOALS CLEAR 56 33 42 NE8 30.10F ...MIDDLE TENNESSEE... CITY SKY/WX TMP DP RH WIND PRES REMARKS NASHVILLE CLEAR 49 29 46 N12 30.17R CLARKSVILLE CLEAR 45 33 63 N8 30.18R DICKSON PTCLDY 48 30 49 NE6 30.15R COLUMBIA CLEAR 45 41 87 CALM 30.12S LAWRENCEBURG CLOUDY 48 32 53 N5 30.11F LEWISBURG CLEAR 37 34 87 CALM 30.13S ...WESTERN KENTUCKY... CITY SKY/WX TMP DP RH WIND PRES REMARKS PADUCAH CLEAR 48 30 49 NE8 30.19S FORT CAMPBELL CLEAR 44 34 68 N9 30.18R ...CENTRAL ARKANSAS... CITY SKY/WX TMP DP RH WIND PRES REMARKS LITTLE ROCK MOCLDY 51 40 65 CALM 30.08S SKY/WX REPORTED AS FAIR MEANS FEW OR NO CLOUDS BELOW 12 THOUSAND FEET.

USA.gov is the U.S. government's official web portal to all federal, state and local government web resources and services.